When you browse on this site, cookies collect data to enhance your experience and personalize the content and advertising you see.
Visit our Privacy Policy to learn more. By continuing to use the site, you agree to this use of cookies and data.
  • In Sweden
  • List of Countries
  • For 7 days
  • Water Temperature
  • Weather Map
  • Weather Widgets
  • user-avatar
    Login

    Hourly Weather Rakovo

    Today, 20 September, Friday

    Time Temperature Precipitation Wind Pressure Humidity
    00:00 +3°C° 0 mm 1 mps 745 mmHg 90%
    01:00 +3°C° 0 mm 1 mps 745 mmHg 90%
    02:00 +2°C° 0 mm 1 mps 745 mmHg 88%
    03:00 +3°C° 0 mm 1 mps 745 mmHg 88%
    04:00 +3°C° 0 mm 1 mps 745 mmHg 88%
    05:00 +2°C° 0 mm 2 mps 745 mmHg 88%
    06:00 +3°C° 0 mm 2 mps 745 mmHg 88%
    07:00 +4°C° 0 mm 2 mps 745 mmHg 87%
    08:00 +4°C° 0 mm 3 mps 746 mmHg 85%
    09:00 +5°C° 0.1 mm 3 mps 746 mmHg 79%
    10:00 +5°C° 0.1 mm 3 mps 746 mmHg 73%
    11:00 +6°C° 0.1 mm 4 mps 746 mmHg 67%
    12:00 +7°C° 0 mm 4 mps 746 mmHg 62%
    13:00 +8°C° 0 mm 3 mps 746 mmHg 58%
    14:00 +9°C° 0 mm 3 mps 746 mmHg 53%
    15:00 +8°C° 0 mm 3 mps 746 mmHg 57%
    16:00 +8°C° 0 mm 2 mps 746 mmHg 62%
    17:00 +7°C° 0 mm 2 mps 747 mmHg 66%
    18:00 +6°C° 0 mm 2 mps 747 mmHg 70%
    19:00 +4°C° 0 mm 2 mps 747 mmHg 74%
    20:00 +3°C° 0 mm 2 mps 747 mmHg 78%
    21:00 +2°C° 0 mm 2 mps 747 mmHg 79%
    22:00 +2°C° 0 mm 2 mps 746 mmHg 79%
    23:00 +2°C° 0 mm 2 mps 746 mmHg 79%

    Tomorrow, 21 September, Saturday

    Time Temperature Precipitation Wind Pressure Humidity
    00:00 +2°C° 0 mm 2 mps 746 mmHg 83%
    01:00 +2°C° 0 mm 2 mps 746 mmHg 87%
    02:00 +2°C° 0 mm 2 mps 746 mmHg 91%
    03:00 +2°C° 0 mm 2 mps 746 mmHg 93%
    04:00 +2°C° 0 mm 2 mps 745 mmHg 96%
    05:00 +3°C° 0 mm 2 mps 745 mmHg 98%
    06:00 +4°C° 0.3 mm 2 mps 745 mmHg 96%
    07:00 +4°C° 0.3 mm 2 mps 745 mmHg 95%
    08:00 +5°C° 0.3 mm 2 mps 744 mmHg 94%
    09:00 +5°C° 0.3 mm 2 mps 744 mmHg 94%
    10:00 +4°C° 0.3 mm 3 mps 744 mmHg 94%
    11:00 +4°C° 0.3 mm 3 mps 743 mmHg 94%
    12:00 +5°C° 0.1 mm 3 mps 743 mmHg 94%
    13:00 +5°C° 0.1 mm 3 mps 742 mmHg 93%
    14:00 +7°C° 0.1 mm 3 mps 742 mmHg 93%
    15:00 +7°C° 0 mm 2 mps 741 mmHg 94%
    16:00 +7°C° 0 mm 2 mps 741 mmHg 95%
    17:00 +7°C° 0 mm 2 mps 740 mmHg 96%
    18:00 +7°C° 0.6 mm 2 mps 740 mmHg 97%
    19:00 +8°C° 0.6 mm 1 mps 740 mmHg 98%
    20:00 +8°C° 0.6 mm 1 mps 739 mmHg 99%
    21:00 +7°C° 0.2 mm 2 mps 739 mmHg 98%
    22:00 +8°C° 0.2 mm 2 mps 739 mmHg 98%
    23:00 +9°C° 0.2 mm 3 mps 739 mmHg 97%

    Day after tomorrow, 22 September, Sunday

    Time Temperature Precipitation Wind Pressure Humidity
    00:00 +7°C° 0 mm 4 mps 738 mmHg 96%
    01:00 +7°C° 0 mm 4 mps 738 mmHg 94%
    02:00 +6°C° 0 mm 5 mps 738 mmHg 93%
    03:00 +6°C° 0 mm 4 mps 739 mmHg 94%
    04:00 +5°C° 0 mm 4 mps 739 mmHg 94%
    05:00 +5°C° 0 mm 3 mps 739 mmHg 95%
    06:00 +5°C° 0.1 mm 4 mps 739 mmHg 93%
    07:00 +5°C° 0.1 mm 4 mps 740 mmHg 91%
    08:00 +6°C° 0.1 mm 5 mps 740 mmHg 89%
    09:00 +6°C° 0.2 mm 5 mps 740 mmHg 84%
    10:00 +6°C° 0.2 mm 5 mps 741 mmHg 79%
    11:00 +7°C° 0.2 mm 5 mps 741 mmHg 73%
    12:00 +7°C° 0.3 mm 5 mps 742 mmHg 73%
    13:00 +7°C° 0.3 mm 6 mps 743 mmHg 72%
    14:00 +7°C° 0.3 mm 6 mps 743 mmHg 71%
    15:00 +6°C° 0.2 mm 5 mps 744 mmHg 73%
    16:00 +5°C° 0.2 mm 4 mps 744 mmHg 75%
    17:00 +5°C° 0.2 mm 3 mps 745 mmHg 77%
    18:00 +4°C° 0 mm 3 mps 745 mmHg 81%
    19:00 +2°C° 0 mm 3 mps 746 mmHg 85%
    20:00 +2°C° 0 mm 2 mps 747 mmHg 88%
    21:00 +2°C° 0 mm 2 mps 747 mmHg 90%
    22:00 +1°C° 0 mm 2 mps 748 mmHg 91%
    23:00 +1°C° 0 mm 2 mps 748 mmHg 92%

    23 September, Monday

    Time Temperature Precipitation Wind Pressure Humidity
    00:00 -1°C° 0 mm 2 mps 748 mmHg 94%
    01:00 -1°C° 0 mm 2 mps 749 mmHg 95%
    02:00 -1°C° 0 mm 2 mps 749 mmHg 96%
    03:00 -2°C° 0 mm 2 mps 749 mmHg 96%
    04:00 -2°C° 0 mm 2 mps 749 mmHg 96%
    05:00 -2°C° 0 mm 2 mps 750 mmHg 96%
    06:00 -1°C° 0 mm 2 mps 750 mmHg 91%
    07:00 +1°C° 0 mm 2 mps 750 mmHg 85%
    08:00 +2°C° 0 mm 2 mps 750 mmHg 80%
    09:00 +4°C° 0 mm 2 mps 750 mmHg 73%
    10:00 +5°C° 0 mm 2 mps 750 mmHg 67%
    11:00 +7°C° 0 mm 3 mps 750 mmHg 61%
    12:00 +7°C° 0 mm 3 mps 750 mmHg 60%
    13:00 +7°C° 0 mm 3 mps 750 mmHg 59%
    14:00 +8°C° 0 mm 3 mps 750 mmHg 58%
    15:00 +7°C° 0.1 mm 2 mps 749 mmHg 64%
    16:00 +6°C° 0.1 mm 2 mps 749 mmHg 69%
    17:00 +6°C° 0.1 mm 2 mps 749 mmHg 75%
    18:00 +5°C° 0 mm 2 mps 749 mmHg 79%
    19:00 +4°C° 0 mm 2 mps 749 mmHg 82%
    20:00 +3°C° 0 mm 2 mps 749 mmHg 86%
    21:00 +2°C° 0 mm 2 mps 749 mmHg 88%
    22:00 +2°C° 0 mm 1 mps 749 mmHg 90%
    23:00 +1°C° 0 mm 1 mps 749 mmHg 92%

    24 September, Tuesday

    Time Temperature Precipitation Wind Pressure Humidity
    00:00 +1°C° 0 mm 1 mps 749 mmHg 92%
    01:00 +1°C° 0 mm 1 mps 750 mmHg 92%
    02:00 +1°C° 0 mm 1 mps 750 mmHg 93%
    03:00 +1°C° 0 mm 1 mps 750 mmHg 94%
    04:00 -1°C° 0 mm 2 mps 750 mmHg 94%
    05:00 -1°C° 0 mm 2 mps 749 mmHg 95%
    06:00 +1°C° 0 mm 2 mps 750 mmHg 93%
    07:00 +2°C° 0 mm 2 mps 750 mmHg 90%
    08:00 +3°C° 0 mm 2 mps 750 mmHg 88%
    09:00 +5°C° 0.1 mm 2 mps 750 mmHg 81%
    10:00 +6°C° 0.1 mm 2 mps 750 mmHg 73%
    11:00 +7°C° 0.1 mm 2 mps 750 mmHg 66%
    12:00 +7°C° 0.2 mm 2 mps 749 mmHg 68%
    13:00 +7°C° 0.2 mm 3 mps 749 mmHg 69%
    14:00 +7°C° 0.2 mm 3 mps 749 mmHg 70%
    15:00 +7°C° 0.1 mm 2 mps 749 mmHg 74%
    16:00 +6°C° 0.1 mm 2 mps 748 mmHg 77%
    17:00 +6°C° 0.1 mm 2 mps 748 mmHg 80%
    18:00 +6°C° 0 mm 1 mps 748 mmHg 84%
    19:00 +5°C° 0 mm 1 mps 748 mmHg 87%
    20:00 +3°C° 0 mm 1 mps 748 mmHg 90%
    21:00 +3°C° 0 mm 1 mps 749 mmHg 91%
    22:00 +2°C° 0 mm 1 mps 749 mmHg 93%
    23:00 +1°C° 0 mm 1 mps 749 mmHg 94%

    25 September, Wednesday

    Time Temperature Precipitation Wind Pressure Humidity
    00:00 +1°C° 0 mm 1 mps 749 mmHg 93%
    01:00 0°C° 0 mm 1 mps 749 mmHg 93%
    02:00 0°C° 0 mm 1 mps 749 mmHg 92%
    03:00 0°C° 0 mm 1 mps 749 mmHg 91%
    04:00 0°C° 0 mm 1 mps 749 mmHg 90%
    05:00 -1°C° 0 mm 1 mps 749 mmHg 89%
    06:00 +1°C° 0 mm 1 mps 749 mmHg 86%
    07:00 +2°C° 0 mm 1 mps 749 mmHg 82%
    08:00 +3°C° 0 mm 1 mps 749 mmHg 79%
    09:00 +5°C° 0 mm 1 mps 749 mmHg 74%
    10:00 +6°C° 0 mm 1 mps 749 mmHg 69%
    11:00 +7°C° 0 mm 1 mps 750 mmHg 64%
    12:00 +8°C° 0 mm 1 mps 750 mmHg 64%
    13:00 +8°C° 0 mm 1 mps 750 mmHg 63%
    14:00 +8°C° 0 mm 1 mps 749 mmHg 62%
    15:00 +8°C° 0.1 mm 1 mps 749 mmHg 67%
    16:00 +7°C° 0.1 mm 1 mps 749 mmHg 72%
    17:00 +5°C° 0.1 mm 0 mps 750 mmHg 77%
    18:00 +4°C° 0 mm 0 mps 750 mmHg 81%
    19:00 +3°C° 0 mm 0 mps 750 mmHg 85%
    20:00 +2°C° 0 mm 0 mps 750 mmHg 89%
    21:00 +1°C° 0 mm 0 mps 750 mmHg 90%
    22:00 +2°C° 0 mm 1 mps 750 mmHg 90%
    23:00 +2°C° 0 mm 1 mps 751 mmHg 91%
    Show more